Powrót do katalogu

CTS DEB

ARRAY COVER

AktywnyGEO
NORAD 39688·DEBRIS·🇨🇦 Canada

Wystrzelony Jan 17, 1976 z Cape Canaveral Space Force Station

Loading…

TLE

ŚwieżeSource: Space-Track

Epoka: Sep 14, 2026, 12:02 UTC

1 39688U 76004E   26257.50183899 -.00000179  00000-0  00000-0 0  9994
2 39688   3.0070 264.3180 0046623 209.7685 327.3259  1.00310198 43672

Śledź CTS DEB w czasie rzeczywistym z AllMySat

Download on the App Store